This is the latest recevied weather packets stored in our database for station/object KI7JYE. If no packets are shown the sender has not sent any weather packets the latest 10 day(s).
| Time | Temp. | Humidity | Pressure | Rain* | Wind** | Luminosity | Snow |
|---|---|---|---|---|---|---|---|
| 1778086088 | 15° C | 81% | 1019.7 hPa | 0 mm | - | 166 W/m² | - |
| 1778085785 | 14.44° C | 82% | 1019.8 hPa | 0 mm | - | 177 W/m² | - |
| 1778085481 | 14.44° C | 82% | 1019.9 hPa | 0 mm | - | 151 W/m² | - |
| 1778085176 | 14.44° C | 82% | 1019.9 hPa | 0 mm | - | 134 W/m² | - |
| 1778084872 | 13.89° C | 83% | 1019.7 hPa | 0 mm | - | 103 W/m² | - |
| 1778084570 | 14.44° C | 82% | 1019.8 hPa | 0 mm | - | 115 W/m² | - |
| 1778084267 | 13.89° C | 83% | 1019.8 hPa | 0 mm | - | 135 W/m² | - |
| 1778083965 | 14.44° C | 82% | 1019.6 hPa | 0 mm | - | 143 W/m² | - |
| 1778083662 | 14.44° C | 82% | 1019.6 hPa | 0 mm | - | 145 W/m² | - |
| 1778083359 | 13.89° C | 83% | 1019.5 hPa | 0 mm | - | 108 W/m² | - |
| 1778083057 | 13.89° C | 83% | 1019.4 hPa | 0 mm | - | 122 W/m² | - |
| 1778082754 | 13.89° C | 84% | 1019.2 hPa | 0 mm | - | 144 W/m² | - |
| 1778081621 | 13.89° C | 86% | 1019.1 hPa | 0 mm | - | 215 W/m² | - |
| 1778081318 | 13.33° C | 87% | 1019.2 hPa | 0 mm | - | 173 W/m² | - |
| 1778081015 | 13.33° C | 87% | 1019.6 hPa | 0 mm | - | 140 W/m² | - |
| 1778080714 | 12.78° C | 88% | 1019.5 hPa | 0 mm | - | 69 W/m² | - |
| 1778080410 | 12.78° C | 88% | 1019.7 hPa | 0 mm | - | 43 W/m² | - |
| 1778080107 | 12.78° C | 88% | 1019.6 hPa | 0 mm | - | 42 W/m² | - |
| 1778079804 | 12.78° C | 88% | 1019.8 hPa | 0 mm | - | 32 W/m² | - |
| 1778079501 | 12.78° C | 88% | 1020 hPa | 0 mm | - | 30 W/m² | - |
| 1778079197 | 12.78° C | 88% | 1019.6 hPa | 0 mm | - | 29 W/m² | - |
| 1778078895 | 12.78° C | 89% | 1019.9 hPa | 0 mm | - | 27 W/m² | - |
| 1778078591 | 12.78° C | 89% | 1019.7 hPa | 0 mm | - | 31 W/m² | - |
| 1778078290 | 12.78° C | 89% | 1019.5 hPa | 0 mm | - | 34 W/m² | - |
| 1778077986 | 12.78° C | 89% | 1019.9 hPa | 0 mm | - | 30 W/m² | - |
* Rain latest hour (hover to see other rain measurements)
** Current wind speed in m/s (hover to see current wind gust speed)